Weather History for Crestview, FL

Change the Weather History Date:

Monday, March 25, 2013

  Actual Average Record
Temperature  
Mean Temperature 49 °F -  
Max Temperature 60 °F - - ()
Min Temperature 39 °F - - ()
Degree Days  
Heating Degree Days 16    
Moisture  
Dew Point 23 °F    
Average Humidity 40    
Maximum Humidity 65    
Minimum Humidity 20    
Precipitation  
Precipitation 0.00 in - - ()
Sea Level Pressure  
Sea Level Pressure 30.04 in    
Wind  
Wind Speed 14 mph (NW)    
Max Wind Speed 21 mph    
Max Gust Speed 29 mph    
Visibility 10 miles    
Events      
T = Trace of Precipitation, MM = Missing Value Source: NWS Daily Summary

Daily Weather History Graph

Daily Weather History Graph

Search for Another Location

Airport:

Trip Planner

Search our weather history database for the weather conditions in past years. The results will help you decide how hot, cold, wet, or windy it might be!

Date:

Astronomy

Mar. 25, 2013 Rise Set
Actual Time 6:43 AM CDT 7:00 PM CDT
Civil Twilight 6:19 AM CDT 7:25 PM CDT
Nautical Twilight 5:51 AM CDT 7:53 PM CDT
Astronomical Twilight 5:22 AM CDT 8:21 PM CDT
Moon 5:35 PM CDT (3/25) 5:20 AM CDT (3/25)
Length of Visible Light 13h 05m
Length of Day
12h 17m
Waxing Gibbous, 96% of the Moon is Illuminated
Mar 25
Waxing Gibbous
Mar 27
Full
Apr 2
Last Quarter
Apr 10
New
Apr 18
First Quarter

Hourly Weather History & Observations

Time (CDT) Temp. Windchill Dew Point Humidity Pressure Visibility Wind Dir Wind Speed Gust Speed Precip Events Conditions
12:58 AM 47.1 °F - 30.6 °F 53% 29.92 in 10.0 mi NW 15.0 mph 21.9 mph N/A   Clear
1:58 AM 45.3 °F 39.7 °F 31.3 °F 58% 29.94 in 10.0 mi NW 11.5 mph - N/A   Clear
2:58 AM 43.9 °F 36.8 °F 29.7 °F 57% 29.95 in 10.0 mi NW 15.0 mph - N/A   Clear
3:58 AM 42.4 °F 37.0 °F 29.3 °F 60% 29.97 in 10.0 mi WNW 9.2 mph - N/A   Clear
4:58 AM 41.2 °F 36.6 °F 30.2 °F 65% 29.98 in 10.0 mi WNW 6.9 mph - N/A   Clear
5:58 AM 39.9 °F 33.4 °F 28.6 °F 64% 29.98 in 10.0 mi NW 10.4 mph - N/A   Clear
6:58 AM 39.4 °F 32.7 °F 26.8 °F 61% 30.02 in 10.0 mi NW 10.4 mph - N/A   Clear
7:58 AM 41.0 °F 32.8 °F 26.6 °F 57% 30.05 in 10.0 mi NW 16.1 mph - N/A   Clear
8:55 AM 43.2 °F 35.3 °F 26.6 °F 52% 30.07 in 10.0 mi NNW 17.3 mph 23.0 mph N/A   Clear
9:55 AM 45.9 °F 39.7 °F 27.7 °F 49% 30.08 in 10.0 mi WNW 13.8 mph - N/A   Clear
10:55 AM 48.6 °F - 25.2 °F 40% 30.08 in 10.0 mi NW 12.7 mph 20.7 mph N/A   Clear
11:55 AM 52.9 °F - 21.2 °F 29% 30.07 in 10.0 mi NW 11.5 mph 23.0 mph N/A   Clear
12:55 PM 56.1 °F - 19.2 °F 24% 30.04 in 10.0 mi WNW 19.6 mph 28.8 mph N/A   Clear
1:55 PM 58.5 °F - 18.9 °F 21% 30.03 in 10.0 mi NW 20.7 mph 27.6 mph N/A   Clear
2:35 PM 59.0 °F - 19.4 °F 22% 30.00 in 10.0 mi West 18.4 mph 26.5 mph N/A   Clear
2:55 PM 59.2 °F - 18.0 °F 20% 30.02 in 10.0 mi NW 20.7 mph 28.8 mph N/A   Clear
3:58 PM 59.7 °F - 19.8 °F 21% 30.01 in 10.0 mi WNW 16.1 mph 21.9 mph N/A   Clear
4:55 PM 59.4 °F - 19.2 °F 21% 30.01 in 10.0 mi NW 17.3 mph 26.5 mph N/A   Clear
5:55 PM 57.4 °F - 19.0 °F 22% 30.02 in 10.0 mi NW 16.1 mph 25.3 mph N/A   Clear
6:55 PM 54.3 °F - 16.3 °F 22% 30.05 in 10.0 mi WNW 12.7 mph 20.7 mph N/A   Clear
7:55 PM 50.2 °F - 19.2 °F 29% 30.10 in 10.0 mi NW 8.1 mph - N/A   Clear
8:55 PM 49.1 °F - 18.1 °F 29% 30.14 in 10.0 mi NW 11.5 mph - N/A   Clear
9:55 PM 47.5 °F - 19.0 °F 32% 30.17 in 10.0 mi NW 12.7 mph - N/A   Clear
10:55 PM 45.5 °F 40.3 °F 20.8 °F 38% 30.20 in 10.0 mi NNW 10.4 mph - N/A   Clear
11:55 PM 43.5 °F 38.3 °F 21.6 °F 42% 30.21 in 10.0 mi NNW 9.2 mph - N/A   Clear